Newark, NJ

8:37 AM EDT on October 22, 2019 (GMT -0400)
Newark International

Weather History for KEWR - May, 2019

Change the Weather History Date:

Thursday, May 16, 2019

  Actual Average Record
Temperature  
Mean Temperature 64 °F 63 °F  
Max Temperature 75 °F 72 °F 92 °F (1951)
Min Temperature 52 °F 53 °F 40 °F (1937)
Degree Days  
Heating Degree Days 2 4  
Month to date heating degree days 104 93  
Since 1 July heating degree days 4698 4813  
Cooling Degree Days 0 2  
Month to date cooling degree days 2 19  
Year to date cooling degree days 17 31  
Growing Degree Days 14 (Base 50)    
Moisture  
Dew Point 45 °F    
Average Humidity 53    
Maximum Humidity 93    
Minimum Humidity 26    
Precipitation  
Precipitation 0.05 in 0.13 in 2.11 in (1989)
Month to date precipitation 4.65 1.99  
Year to date precipitation 20.30 16.79  
Snow  
Snow 0.00 in 0.00 in 0.00 in (2002)
Month to date snowfall 0.0 0.0  
Since 1 July snowfall 22.0 28.5  
Snow Depth 0.00 in    
Sea Level Pressure  
Sea Level Pressure 29.85 in    
Wind  
Wind Speed 6 mph ()    
Max Wind Speed 18 mph    
Max Gust Speed 22 mph    
Visibility 10.0 miles    
Events Rain    
T = Trace of Precipitation, MM = Missing Value Source: Averaged Metar Reports

Daily Weather History Graph

Daily Weather History Graph

Search for Another Location

Airport or City:

Astronomy

May. 16, 2019 Rise Set
Actual Time 5:38 AM EDT 8:07 PM EDT
Civil Twilight 5:07 AM EDT 8:38 PM EDT
Nautical Twilight 4:29 AM EDT 9:17 PM EDT
Astronomical Twilight 3:46 AM EDT 10:01 PM EDT
Moon 5:43 PM EDT (5/16) 4:37 AM EDT (5/16)
Length of Visible Light 15h 31m
Length of Day
14h 28m
Waxing Gibbous, 94% of the Moon is Illuminated
May 16
Waxing Gibbous
May 18
Full
May 26
Last Quarter
Jun 3
New
Jun 10
First Quarter

Hourly Weather History & Observations

Time (EDT) Temp. Dew Point Humidity Pressure Visibility Wind Dir Wind Speed Gust Speed Precip Events Conditions
12:51 AM 61.0 °F 46.9 °F 60% 29.85 in 10.0 mi NW 8.1 mph - 0.01 in Rain Light Rain
1:51 AM 57.0 °F 48.0 °F 72% 29.84 in 10.0 mi NE 5.8 mph - 0.00 in   Overcast
2:51 AM 57.0 °F 48.0 °F 72% 29.83 in 10.0 mi Calm Calm - 0.00 in Rain Light Rain
3:51 AM 55.0 °F 50.0 °F 83% 29.85 in 9.0 mi SSW 8.1 mph - 0.01 in Rain Light Rain
4:51 AM 54.0 °F 50.0 °F 86% 29.83 in 10.0 mi Calm Calm - 0.03 in   Mostly Cloudy
5:51 AM 53.1 °F 50.0 °F 89% 29.84 in 10.0 mi West 3.5 mph - N/A   Scattered Clouds
6:51 AM 54.0 °F 52.0 °F 93% 29.87 in 10.0 mi WSW 10.4 mph - N/A   Mostly Cloudy
7:51 AM 55.9 °F 51.1 °F 84% 29.89 in 10.0 mi WSW 8.1 mph - N/A   Mostly Cloudy
8:51 AM 62.1 °F 51.1 °F 67% 29.88 in 10.0 mi West 8.1 mph - N/A   Partly Cloudy
9:51 AM 64.9 °F 48.0 °F 54% 29.88 in 10.0 mi Calm Calm - N/A   Scattered Clouds
10:51 AM 66.9 °F 46.9 °F 49% 29.86 in 10.0 mi Variable 3.5 mph - N/A   Scattered Clouds
11:51 AM 69.1 °F 43.0 °F 39% 29.86 in 10.0 mi Variable 5.8 mph - N/A   Mostly Cloudy
12:51 PM 69.1 °F 43.0 °F 39% 29.85 in 10.0 mi West 15.0 mph - N/A   Mostly Cloudy
1:51 PM 70.0 °F 41.0 °F 35% 29.84 in 10.0 mi WNW 12.7 mph 17.3 mph N/A   Mostly Cloudy
2:51 PM 73.9 °F 39.9 °F 29% 29.83 in 10.0 mi West 13.8 mph 20.7 mph N/A   Scattered Clouds
3:51 PM 73.0 °F 39.0 °F 29% 29.82 in 10.0 mi WNW 12.7 mph - N/A   Mostly Cloudy
4:51 PM 73.9 °F 37.0 °F 26% 29.82 in 10.0 mi NW 10.4 mph - N/A   Mostly Cloudy
5:51 PM 73.9 °F 37.0 °F 26% 29.82 in 10.0 mi WNW 11.5 mph - N/A   Mostly Cloudy
6:51 PM 73.0 °F 37.0 °F 27% 29.83 in 10.0 mi NW 11.5 mph - N/A   Mostly Cloudy
7:51 PM 71.1 °F 37.0 °F 29% 29.84 in 10.0 mi North 9.2 mph - N/A   Mostly Cloudy
8:51 PM 68.0 °F 37.9 °F 33% 29.85 in 10.0 mi Calm Calm - N/A   Mostly Cloudy
9:51 PM 68.0 °F 44.1 °F 42% 29.86 in 10.0 mi SE 3.5 mph - N/A   Mostly Cloudy
10:51 PM 64.0 °F 46.0 °F 52% 29.87 in 10.0 mi Calm Calm - N/A   Mostly Cloudy
11:51 PM 63.0 °F 46.9 °F 56% 29.88 in 10.0 mi Calm Calm - N/A   Mostly Cloudy